TimeAKDT,TemperatureF,Dew PointF,Humidity,Sea Level PressureIn,VisibilityMPH,Wind Direction,Wind SpeedMPH,Gust SpeedMPH,PrecipitationIn,Events,Conditions,WindDirDegrees,DateUTC
12:53 AM,45.0,42.1,90,30.12,10.0,North,3.5,-,N/A,,Mostly Cloudy,350,2013-05-23 08:53:00
1:43 AM,44.6,41.0,87,30.11,10.0,NW,8.1,-,N/A,,Scattered Clouds,310,2013-05-23 09:43:00
1:53 AM,46.0,41.0,83,30.11,10.0,NNW,12.7,-,N/A,,Clear,330,2013-05-23 09:53:00
2:10 AM,44.6,41.0,87,30.10,10.0,NW,6.9,-,N/A,,Mostly Cloudy,320,2013-05-23 10:10:00
2:19 AM,44.6,39.2,81,30.10,10.0,NE,4.6,-,N/A,,Scattered Clouds,50,2013-05-23 10:19:00
2:27 AM,44.6,41.0,87,30.10,10.0,NNW,4.6,-,N/A,,Mostly Cloudy,340,2013-05-23 10:27:00
2:42 AM,44.6,39.2,81,30.10,10.0,NNW,8.1,-,N/A,,Scattered Clouds,330,2013-05-23 10:42:00
2:53 AM,45.0,41.0,86,30.10,10.0,NNW,9.2,-,N/A,,Partly Cloudy,330,2013-05-23 10:53:00
3:53 AM,45.0,39.9,82,30.10,10.0,North,11.5,-,N/A,,Mostly Cloudy,350,2013-05-23 11:53:00
4:04 AM,44.6,39.2,81,30.10,10.0,North,3.5,-,N/A,,Partly Cloudy,360,2013-05-23 12:04:00
4:53 AM,45.0,39.9,82,30.09,10.0,NNW,18.4,-,N/A,,Scattered Clouds,330,2013-05-23 12:53:00
5:32 AM,44.6,39.2,81,30.09,10.0,NNW,13.8,21.9,N/A,,Mostly Cloudy,340,2013-05-23 13:32:00
5:53 AM,45.0,39.0,80,30.09,10.0,NNW,11.5,-,N/A,,Mostly Cloudy,340,2013-05-23 13:53:00
6:53 AM,46.0,39.0,76,30.08,10.0,North,11.5,-,N/A,,Overcast,350,2013-05-23 14:53:00
7:53 AM,46.9,39.0,74,30.06,10.0,Variable,5.8,-,N/A,,Mostly Cloudy,0,2013-05-23 15:53:00
8:23 AM,46.4,39.2,76,30.05,10.0,NNW,11.5,-,N/A,,Mostly Cloudy,340,2013-05-23 16:23:00
8:53 AM,48.0,41.0,77,30.05,10.0,NNW,10.4,-,N/A,,Mostly Cloudy,330,2013-05-23 16:53:00
9:53 AM,48.0,41.0,77,30.04,10.0,NW,8.1,-,N/A,,Mostly Cloudy,310,2013-05-23 17:53:00
10:53 AM,52.0,42.1,69,30.02,10.0,West,6.9,-,N/A,,Mostly Cloudy,280,2013-05-23 18:53:00
11:53 AM,52.0,43.0,71,30.02,10.0,WNW,12.7,-,N/A,,Mostly Cloudy,290,2013-05-23 19:53:00
12:53 PM,52.0,43.0,71,30.01,10.0,WNW,16.1,-,N/A,,Overcast,300,2013-05-23 20:53:00
1:53 PM,52.0,43.0,71,30.02,10.0,WNW,17.3,-,N/A,,Clear,290,2013-05-23 21:53:00
2:53 PM,52.0,43.0,71,30.00,10.0,WNW,18.4,-,N/A,,Clear,290,2013-05-23 22:53:00
3:53 PM,53.1,44.1,71,29.99,10.0,WNW,15.0,-,N/A,,Clear,290,2013-05-23 23:53:00
4:53 PM,53.1,44.1,71,29.99,10.0,WNW,12.7,-,N/A,,Clear,290,2013-05-24 00:53:00
5:53 PM,53.1,44.1,71,29.98,10.0,WNW,12.7,-,N/A,,Clear,300,2013-05-24 01:53:00
6:53 PM,52.0,44.1,74,29.97,10.0,WNW,15.0,-,N/A,,Clear,300,2013-05-24 02:53:00
7:53 PM,50.0,44.1,80,29.98,10.0,WNW,13.8,-,N/A,,Clear,300,2013-05-24 03:53:00
8:53 PM,48.9,44.1,83,29.99,10.0,NNW,11.5,-,N/A,,Clear,330,2013-05-24 04:53:00
9:53 PM,48.0,44.1,86,29.99,10.0,NW,10.4,-,N/A,Fog,Scattered Clouds,320,2013-05-24 05:53:00
10:53 PM,46.9,44.1,90,29.99,10.0,NW,10.4,-,N/A,Fog,Partly Cloudy,320,2013-05-24 06:53:00
11:53 PM,46.0,43.0,89,29.98,10.0,North,3.5,-,N/A,,Clear,360,2013-05-24 07:53:00